Location: Newark
(37.8333°N, 119.5000°W)
Time: 11:53:26
(UTC+00:00)

Tiros 1 despin weight - Pass Details

Date: 19 August 2019
Orbit: 594 x 642 km, 48.2° (Epoch: 21 September)

Event Time Altitude Azimuth Distance (km) Brightness Sun altitude
Rises 07:31:36 0° 213° (SSW) 2,821 - -38.8°
Reaches altitude 10° 07:33:59 10° 205° (SSW) 1,927 - -38.9°
Maximum altitude 07:38:03 37° 138° (SE) 942 - -39.0°
Drops below altitude 10° 07:42:12 10° 71° (ENE) 1,959 - -39.1°
Sets 07:44:38 0° 63° (ENE) 2,875 - -39.2°
